Hourly Weather Roundup
Issued by NWS Central Illinois

Home | Current Version | Previous Version | Text Only | Print | Product List | Glossary On
Versions: 1 2 3 4 5 6 7 8 9 10 11 12 13 14 15 16 17 18 19 20 21 22 23 24 25 26 27 28 29 30 31 32 33 34 35 36 37 38 39 40 41 42 43 44 45 46 47 48 49 50
000
NZUS43 KILX 180410
HWRILX

Area Weather Roundup
National Weather Service Lincoln IL
1100 PM CDT THU AUG 17 2017

NOTE:  "FAIR" indicates few or no clouds below 12,000 feet, with
       no sigificant weather and/or obstructions to visibility.


CITY           SKY/WX    TMP DP  RH WIND       PRES   REMARKS
Bloomington    CLEAR     70  63  78 W9        29.88R
Champaign      CLEAR     70  66  87 SW8       29.87R
Danville       CLEAR     71  68  90 SW8       29.83S
Decatur        MOCLDY    74  66  76 W8        29.88R
Effingham      CLEAR     71  68  90 W7        29.90F
Flora          CLEAR     76  70  80 W6        29.90R
Galesburg      CLEAR     68  63  83 W6        29.88S
Jacksonville   MOCLDY    68  64  86 SW6       29.88F
Lacon          MOCLDY    70  64  81 SW3       29.84S
Lawrenceville  CLOUDY    76  71  85 W8        29.88R
Litchfield     CLEAR     68  65  88 SW7       29.90S
$$


CITY           SKY/WX    TMP DP  RH WIND       PRES   REMARKS
Lincoln        CLEAR     72  68  87 CALM      29.87S
Macomb         CLEAR     65  63  93 W6        29.90S
Mattoon        CLEAR     73  68  84 W5        29.87S
Mt Carmel AP   CLOUDY    75  72  90 SW8       29.88R
Olney-Noble AP PTCLDY    73  71  92 W6        29.90R
Paris AP       CLEAR     70  67  90 W8        29.87S
Peoria         CLOUDY    72  63  73 W3        29.86S
Pontiac        CLOUDY    69  67  92 W7        29.85S
Rantoul        CLOUDY    74  68  82 W8        29.86S
Robinson       MOCLDY    72  70  93 CALM      29.89R
Springfield    PTCLDY    70  66  87 W6        29.88S
Taylorville    PTCLDY    69  66  88 W7        29.88S
$$

...REGIONAL REPORTS...


CITY           SKY/WX    TMP DP  RH WIND       PRES   REMARKS
Chicago O`Hare PTCLDY    73  63  70 W13       29.77F
Kankakee       CLEAR     70  64  83 CALM      29.83S
Moline         CLEAR     70  63  78 W6        29.85R
Mount Sterling PTCLDY    69  62  77 W6        29.89S
Mount Vernon   CLEAR     74  68  81 CALM      29.91R
Pittsfield     CLEAR     71  63  76 W3        29.91S
Quincy         PTCLDY    71  61  70 W5        29.90R
Rockford       PTCLDY    71  64  78 W10G17    29.80S
$$


CITY           SKY/WX    TMP DP  RH WIND       PRES   REMARKS
Burlington     PTCLDY    69  63  81 NW3       29.88R
Cedar Rapids   CLEAR     63  62  97 W6        29.86R
Des Moines     CLEAR     70  60  70 W5        29.89S
Kirksville     CLEAR     67  61  81 W3        29.94R
Ottumwa        CLEAR     67  61  81 SW7       29.88F
St Louis       CLEAR     75  66  73 W8        29.92S
$$


CITY           SKY/WX    TMP DP  RH WIND       PRES   REMARKS
Terre Haute    PTCLDY    71  68  90 SW3       29.87R
Evansville     MOCLDY    77  71  82 SW8       29.89S
Indianapolis   PTCLDY    74  69  85 SW9       29.85S
Lafayette      CLEAR     69  67  93 W6        29.83S
Madison        MOCLDY    68  61  78 W8        29.76R
Milwaukee      CLOUDY    70  62  76 W14G24    29.72S
$$






USA.gov is the U.S. government's official web portal to all federal, state and local government web resources and services.